Погода в Берлине

США     41°37′16″N   72°44′45″W
темп.,
°C
ветер,
м/с
пор.,
м/с
влажн.,
%
обл.,
%
осадки,
мм/ч
давл.,
гПа
погр.,
м
15 августа, пн
пн1523:00+17ююз237513 0.0 101755
02:00+15ссв018242 0.0 101711
05:00+15всв00845 0.0 101611
08:00+20всв006628 0.0 1017170
11:00+26юв224295 0.0 10171454
14:00+28ююв4435100 0.0 10152665
17:00+23ююв3556100 0.0 1016619
20:00+18вюв237530 0.0 101766
16 августа, вт
вт1623:00+16в11844 0.0 101813
02:00+14ссв228818 0.0 101824
05:00+13ссв25945 0.0 1017109
08:00+17ссв366787 0.0 1018305
11:00+25св3641100 0.0 10181657
14:00+28всв4531100 0.0 10162791
17:00+25юв3545100 0.0 1016819
20:00+17ююз1185100 0.2 101813
17 августа, ср
ср1723:00+16ссв2288100 0.0 101842
02:00+14с24939 0.0 101895
05:00+13с279717 0.0 1018197
08:00+17ссв37815 0.0 1019316
11:00+25св46455 0.0 10181673
14:00+25всв2444100 0.0 1016679
17:00+21вюв2569100 0.1 1016226
20:00+18ююз118315 0.4 101711
18 августа, чт
чт1823:00+16ю009192 0.2 101711
02:00+15ссз00955 0.4 101611
05:00+14з11955 0.0 101610
08:00+18юз13875 0.0 1017152
11:00+24з345214 0.0 10161039
14:00+28з353637 0.0 10142483
17:00+24юз2553100 0.0 1014401
20:00+21ююз256798 0.1 1015179
19 августа, пт
пт1923:00+20юз310755 0.0 1016347
02:00+17зюз119242 0.0 101612
05:00+16з11911 0.0 101711
08:00+20сз11660 0.0 1018163
11:00+28зсз23360 0.0 10181460
14:00+29юз4433100 0.0 10172217
17:00+28ю45390 0.0 10181181
20:00+24ююз385513 0.0 1019346